MPEC 2004-Y60 : 2004 MN4

The following Minor Planet Electronic Circular may be linked-to from your own Web pages, but must not otherwise be redistributed electronically.


Read MPEC 2004-Y59 Read MPEC 2004-Y61


M.P.E.C. 2004-Y60                                Issued 2004 Dec. 25, 14:24 UT

     The Minor Planet Electronic Circulars contain information on unusual
         minor planets and routine data on comets.  They are published
   on behalf of Commission 20 of the International Astronomical Union by the
          Minor Planet Center, Smithsonian Astrophysical Observatory,
                          Cambridge, MA 02138, U.S.A.

                  Supported in part by the Brinson Foundation
             Prepared using the Tamkin Foundation Computer Network

                              MPC@CFA.HARVARD.EDU
          URL http://cfa-www.harvard.edu/iau/mpc.html  ISSN 1523-6714

                                   2004 MN4

                           Revision to MPEC 2004-Y59

Additional Observations:
     K04M04N  C2004 12 24.75058 00 33 20.81 -30 58 58.2          16.6 R EY060620
     K04M04N  C2004 12 24.75872 00 33 26.20 -30 58 25.3          16.9 R EY060620
     K04M04N  C2004 12 24.76625 00 33 31.20 -30 57 55.3          16.9 R EY060620
     K04M04N  C2004 12 25.18418 00 38 16.55 -30 29 31.1          16.3 R EY060448
     K04M04N  C2004 12 25.18641 00 38 18.02 -30 29 21.7          16.3 R EY060448
     K04M04N  C2004 12 25.18909 00 38 19.78 -30 29 10.3          16.3 R EY060448

Observer details:
448 Desert Moon Observatory.  Observer B. L. Stevens.  0.3-m
    Schmidt-Cassegrain + CCD.
620 Observatorio Astronomico de Mallorca.  Observers S. Sanchez, R. Stoss,
    J. Nomen.  0.30-m f/9 Schmidt-Cassegrain + CCD.

Orbital elements:
2004 MN4                                                             PHA 0.002A
Epoch 2005 Jan. 30.0 TT = JDT 2453400.5                 MPC
M 137.20860              (2000.0)            P               Q
n   1.11267538     Peri.  126.38259     +0.87284623     +0.48740121
a   0.9223386      Node   204.47474     -0.46427327     +0.81421136
e   0.1911412      Incl.    3.33118     -0.15029902     +0.31543609
P   0.89           H   19.8           G   0.15           U   5
Residuals in seconds of arc
040619 695  0.2+  0.0     041222 E12  0.9+  0.1+    041224 699  0.4-  0.1-
040619 695  0.4+  0.3-    041223 704 (2.5-  2.3+)   041224 699  1.1+  1.4-
040619 695  0.1+  0.1-    041223 704  0.2-  1.0+    041224 699  1.4-  1.0+
040620 695  0.2-  0.2+    041223 704 (2.3-  0.5+)   041224 699  0.4-  0.4-
040620 695  0.1-  0.2+    041223 704  0.4-  0.6-    041224 699  0.6-  0.6+
040620 695  0.5-  0.2-    041223 704  1.0-  1.5+    041224 620  0.4+  0.3+
041218 E12  0.1-  0.7+    041223 704  0.3-  0.2-    041224 620  0.2+  0.5+
041218 E12  1.2+  0.3-    041223 704  1.5-  0.8+    041224 620  0.3+  0.3+
041218 E12  0.0   0.3-    041223 704  0.8-  0.2-    041225 H06  0.9-  0.5+
041218 E12  0.4-  0.3+    041223 E12  0.8+  0.2-    041225 H06  0.8-  0.6+
041218 E12  0.1+  0.2-    041223 E12  0.3-  0.2+    041225 683  0.2+  0.3+
041218 E12  0.1+  0.3-    041223 E12  0.4+  0.2+    041225 683  0.1+  0.2+
041218 E12  0.0   0.1-    041223 E12  0.4+  0.2-    041225 H06  0.4-  0.2+
041218 E12  0.2+  0.3+    041223 E12  0.2+  0.1-    041225 683  0.4-  0.8-
041218 E12  0.6+  0.1+    041223 E12  0.5+  0.1+    041225 683  0.5-  0.3+
041218 E12  0.3+  0.5+    041223 E12  0.6+  0.2-    041225 683  0.2+  0.0
041218 E12  0.6+  0.2-    041223 E12  0.4+  0.1+    041225 683  0.4+  0.5-
041218 E12  0.1-  0.1-    041223 E12  0.2+  0.2+    041225 683  0.3-  0.1+
041219 854  0.5-  1.0-    041223 E12  1.0+  0.6-    041225 683  0.0   0.0
041219 854  1.3-  1.4+    041223 E12  0.4+  0.3+    041225 683  0.6-  0.2-
041219 854  0.7+  0.5+    041223 E12  0.0   0.0     041225 683  0.2-  0.4-
041219 854  0.8-  0.6-    041223 E12  0.3+  0.2+    041225 683  0.0   0.1+
041219 854  0.1-  0.4-    041223 E12  0.1+  0.4+    041225 683  0.7-  0.6+
041219 474  0.2+  0.2-    041223 E12  0.7+  0.5-    041225 683  0.8-  0.1-
041219 474  0.1+  0.2-    041223 E12  0.3+  0.4-    041225 683  0.1-  0.3-
041219 474  0.1-  0.3-    041223 E12  0.6+  0.3-    041225 683  0.4+  0.0
041219 474  0.1+  0.1-    041223 E12  0.1+  0.2+    041225 683  0.2+  0.1-
041220 673  0.7-  0.6-    041223 E12  0.2+  0.5-    041225 683  0.1+  0.5+
041220 673  0.5-  0.1-    041223 E12  1.1+  0.5-    041225 683  0.6-  0.9-
041220 673  0.6-  0.4-    041224 683  0.3-  0.4-    041225 683  0.6+  0.3-
041220 673  0.3-  0.0     041224 683  0.7+  0.2-    041225 448  0.3+  0.0
041222 E12  0.5+  0.1+    041224 699  0.4-  0.0     041225 448  0.3+  0.1-
041222 E12  0.5+  0.0     041224 699  0.3-  0.3+    041225 448  0.2+  0.0
041222 E12  0.4-  0.3-    041224 699  0.3-  0.3+

Ephemeris:
2004 MN4                 a,e,i = 0.92, 0.19, 3                   q = 0.7460
Date    TT    R. A. (2000) Decl.     Delta      r     Elong.  Phase     V
2004 12 21    23 46.78   -34 42.3    0.096    0.963    74.8    99.6    18.2
2004 12 31    01 36.89   -23 29.4    0.105    0.994    92.6    81.4    17.7
2005 01 10    02 46.15   -12 17.4    0.129    1.021   103.4    69.5    17.8
2005 01 20    03 31.77   -03 52.0    0.160    1.045   108.0    63.6    18.2
2005 01 30    04 06.06   +02 15.0    0.196    1.064   108.7    61.2    18.6
2005 02 09    04 35.03   +06 49.9    0.235    1.080   107.2    60.8    19.0
2005 02 19    05 01.79   +10 21.3    0.275    1.091   104.6    61.3    19.4
2005 03 01    05 27.67   +13 04.8    0.314    1.097   101.4    62.3    19.7
2005 03 11    05 53.35   +15 10.8    0.353    1.099    97.8    63.6    20.0
2005 03 21    06 19.25   +16 44.8    0.389    1.096    94.2    65.1    20.2
2005 03 31    06 45.38   +17 50.6    0.421    1.088    90.5    66.7    20.5
2005 04 10    07 11.74   +18 31.5    0.450    1.076    86.9    68.5    20.6
2005 04 20    07 38.28   +18 49.6    0.472    1.059    83.3    70.4    20.8
2005 04 30    08 04.77   +18 47.8    0.488    1.038    79.7    72.7    20.9
2005 05 10    08 31.04   +18 29.1    0.497    1.013    76.1    75.4    20.9
2005 05 20    08 56.87   +17 57.0    0.497    0.985    72.5    78.7    21.0
2005 05 30    09 21.80   +17 16.5    0.488    0.953    68.8    82.6    21.0
2005 06 09    09 45.32   +16 34.2    0.470    0.920    64.8    87.6    21.1
2005 06 19    10 06.54   +15 59.3    0.442    0.885    60.3    93.9    21.1

Gareth V. Williams           (C) Copyright 2004 MPC           M.P.E.C. 2004-Y60

Read MPEC 2004-Y59 Read MPEC 2004-Y61


Our Web policy. Index to the CBAT/MPC/ICQ pages.

MPC